Home   Weather   Malakal   Past weeks

Flag for South Sudan Past Weather in Malakal, South Sudan — Yesterday and Last 2 Weeks

Now
82 °F

Clear.


Feels Like: 83 °F
Forecast: 76 / 84 °F
Wind: 17 mph from Southwest

Location: Khartoum Airport

Current Time: Aug 21, 2017 at 12:24:10 am

Latest Report: Aug 21, 2017 at 12:00 am


Visibility: 10 mi

Pressure: 29.86 "Hg

Humidity: 51%

Dew Point: 63 °F

Location of MalakalLocation

Past Weather in Malakal — Graph

°F

Malakal Temperature Yesterday

Maximum temperature yesterday: 100 °F (at 3:00 pm)
Minimum temperature yesterday: 84 °F (at 11:00 pm)
Average temperature yesterday: 91 °F

High & Low Weather Summary for the Past Weeks

 TemperatureHumidityPressure
High104 °F (Aug 6, 3:30 pm)94% (Aug 17, 7:00 am)29.98 "Hg (Aug 17, 7:00 am)
Low72 °F (Aug 17, 7:00 am)14% (Aug 6, 3:30 pm)29.68 "Hg (Aug 6, 5:30 pm)
Average89 °F48%29.81 "Hg
* Reported Aug 5 11:00 pm — Aug 20 11:00 pm, Malakal. Weather by CustomWeather, © 2017

Note: Actual official high and low records may vary slightly from our data, if they occured in-between our weather recording intervals... More about our weather records

Advertising

Malakal Weather History for the Previous 24 Hours

Scroll right to see more
 ConditionsComfort  
Time TempWeatherWind HumidityBarometerVisibility
11:00 pm
Sun, Aug 20
84 °FClear.16 mph48%29.86 "Hg10 mi
10:30 pm86 °FClear.16 mph49%29.83 "Hg10 mi
10:00 pm86 °FClear.14 mph49%29.83 "Hg10 mi
9:30 pm88 °FClear.12 mph43%29.83 "Hg10 mi
9:00 pm88 °FClear.10 mph43%29.83 "Hg10 mi
8:30 pm88 °FWarm.14 mph43%29.80 "HgN/A
8:00 pm88 °FWarm.14 mph49%29.83 "HgN/A
7:30 pm91 °FClear.15 mph41%29.80 "Hg10 mi
7:00 pm91 °FClear.16 mph41%29.80 "Hg5 mi
6:30 pm91 °FHot.14 mph41%29.77 "Hg4 mi
6:00 pm93 °FExtremely hot.13 mph41%29.77 "Hg4 mi
5:30 pm93 °FExtremely hot.14 mph41%29.77 "Hg4 mi
5:00 pm95 °FExtremely hot.13 mph41%29.77 "Hg4 mi
4:30 pm95 °FPassing clouds.21 mph41%29.77 "Hg4 mi
4:00 pm100 °FPassing clouds.10 mph29%29.77 "HgN/A
3:30 pm100 °FPassing clouds.13 mph27%29.77 "HgN/A
3:00 pm100 °FPassing clouds.12 mph29%29.80 "HgN/A
2:30 pm97 °FPassing clouds.12 mph30%29.80 "HgN/A
1:30 pm97 °FScattered clouds.7 mph30%29.80 "HgN/A
1:00 pm97 °FExtremely hot.6 mph32%29.83 "HgN/A
12:30 pm97 °FExtremely hot.10 mph32%29.83 "HgN/A
12:00 pm95 °FPassing clouds.9 mph34%29.86 "HgN/A
11:30 am95 °FPassing clouds.9 mph39%29.86 "HgN/A
11:00 am95 °FScattered clouds.12 mph39%29.86 "HgN/A
10:30 am93 °FPassing clouds.13 mph41%29.89 "HgN/A
10:00 am91 °FSunny.8 mph44%29.89 "Hg10 mi
9:30 am91 °FPassing clouds.8 mph44%29.89 "Hg5 mi
9:00 am90 °FPassing clouds.6 mph49%29.86 "Hg5 mi
8:30 am88 °FWarm.5 mph52%29.86 "Hg5 mi
7:30 am86 °FWarm.2 mph55%29.83 "Hg5 mi
7:00 am86 °FSunny.3 mph55%29.83 "Hg10 mi
6:30 am86 °FClear.3 mph59%29.83 "Hg10 mi
6:00 am86 °FClear.3 mph55%29.83 "Hg10 mi
5:30 am86 °FClear.5 mph59%29.83 "Hg10 mi
5:00 am88 °FClear.5 mph55%29.80 "Hg10 mi
4:30 am88 °FClear.6 mph52%29.80 "Hg10 mi
4:00 am88 °FClear.5 mph52%29.80 "Hg10 mi
3:00 am88 °FClear.5 mph55%29.80 "Hg10 mi
2:00 am88 °FClear.7 mph49%29.83 "Hg10 mi
1:30 am90 °FClear.5 mph46%29.83 "Hg10 mi
1:00 am90 °FClear.5 mph46%29.83 "Hg10 mi
12:30 am90 °FClear.6 mph46%29.83 "Hg10 mi
12:00 am88 °FClear.6 mph49%29.83 "Hg10 mi
Weather by CustomWeather, © 2017

See weather overviewHow to use our weather pages